Preview of NWS' New Version of Forecast
This preview is not operational and should not be used for support decisions.

Regional Weather Roundup (RWR)

Issued by National Weather Service (NWS)

                            
000
ASUS43 KDMX 250101
RWRIA 

WEATHER ROUNDUP FOR IOWA
NATIONAL WEATHER SERVICE DES MOINES IA
800 PM CDT MON JUN 24 2019

NOTE: "FAIR" INDICATES FEW OR NO CLOUDS BELOW 12,000 FEET WITH NO
SIGNIFICANT WEATHER AND/OR OBSTRUCTIONS TO VISIBILITY.

* - THESE STATIONS ARE NOT NWS STATIONS...THUS NOT UNDER NWS
QUALITY CONTROL.  THEY ALSO DO NOT REPORT WEATHER SUCH 
AS PRECIPITATION OR FOG.  

IAZ001>003-012>014-020>022-031>034-043>046-250200-
   NORTHWEST IOWA
  
CITY           SKY/WX    TMP DP  RH WIND       PRES   REMARKS
CARROLL *      CLEAR     75  57  53 W13       29.74R                  
CHEROKEE *     LGT RAIN  66  60  79 NW3       29.73F                  
DENISON *      CLEAR     75  59  57 SW9G15    29.77R                  
LE MARS *      SUNNY     70  59  68 CALM      29.72S                  
SHELDON *      CLEAR     72  63  73 MISG      29.70S                  
SIOUX CITY     CLEAR     75  58  55 SW9       29.72R                  
SPENCER        CLEAR     77  57  50 W16G23    29.71R                  
STORM LAKE *   DRIZZLE   72  57  60 NW12G18   29.72R                  
$$
 
IAZ055>058-069>071-079>083-090>094-250200-
   SOUTHWEST IOWA
  
CITY           SKY/WX    TMP DP  RH WIND       PRES   REMARKS
ATLANTIC *     CLEAR     75  59  57 SW7       29.76R                  
AUDUBON *      CLEAR     73  59  60 CALM      29.78R                  
CLARINDA *     CLEAR     77  61  57 SW7       29.81R                  
COUNCIL BLFS * CLEAR     77  54  44 SW8       29.76R                  
CRESTON *      CLEAR     73  57  56 W9        29.79R                  
HARLAN  *      CLEAR     75  57  53 SW8       29.77R                  
LAMONI         CLEAR     75  57  53 SW9       29.80R                  
RED OAK *      CLEAR     77  59  53 SW7       29.78R                  
SHENANDOAH *   CLEAR     77  61  57 SW8       29.78R                  
$$
 
IAZ047>049-059>061-072>074-084-250200-
   CENTRAL IOWA
  
CITY           SKY/WX    TMP DP  RH WIND       PRES   REMARKS
AMES           PTCLDY    68  63  84 MISG      29.74R                  
ANKENY *       MOCLDY    72  57  60 CALM      29.76R                  
BOONE *        PTCLDY    68  68 100 CALM      29.73F                  
CHARITON *     CLEAR     73  59  60 SW7       29.77S                  
DES MOINES     PTCLDY    76  56  49 W8        29.74R                  
GRINNELL*      LGT RAIN  69  58  68 W21G38    29.78R                  
KNOXVILLE *    CLEAR     73  59  60 SW7       29.75S                  
MARSHALLTOWN   CLEAR     69  56  62 W10       29.72R                  
NEWTON *       RAIN      64  61  88 NW16G29   29.77R                  
PELLA *          N/A     75  56  50 W6        29.76R                  
$$
 
IAZ004>006-015-016-023>025-035-036-250200-
   NORTH CENTRAL IOWA
  
CITY           SKY/WX    TMP DP  RH WIND       PRES   REMARKS
ALGONA *       CLEAR     73  61  64 SW8       29.70R                  
CLARION *      CLEAR     72  63  73 W7        29.72R                  
ESTHERVILLE    PTCLDY    73  59  61 W10       29.69R                  
FORT DODGE *   CLEAR     72  61  68 SW5       29.73R                  
MASON CITY     CLEAR     72  57  59 W8        29.71R                  
FOREST CITY *  FAIR      73  55  53 W7        29.70R                  
IOWA FALLS *   FAIR      72  60  66 W10       29.73S                  
$$

IAZ007>011-017>019-026>030-037>042-050>054-066-250200-
   NORTHEAST IOWA
  
CITY           SKY/WX    TMP DP  RH WIND       PRES   REMARKS
CEDAR RAPIDS   FAIR      71  59  65 SW9       29.71R                  
CHARLES CITY * FAIR      72  55  56 NW8       29.70R                  
CLINTON *      FAIR      72  61  68 W10       29.72R                  
DECORAH *      FAIR      66  61  82 VRB5      29.69R                  
DUBUQUE        FAIR      66  61  84 W6        29.70R                  
MONTICELLO *   MOCLDY    73  59  60 W10G17    29.70R                  
OELWEIN *      FAIR      72  61  68 W14       29.70R                  
WATERLOO       FAIR      74  56  53 W13       29.69R                  
$$
 
IAZ064-065-067-068-078-250200-
   EAST CENTRAL IOWA
  
CITY           SKY/WX    TMP DP  RH WIND       PRES   REMARKS
DAVENPORT      FAIR      72  58  61 W12       29.74R                  
IOWA CITY      FAIR      74  58  57 SW8       29.74R                  
MT. PLEASANT * CLEAR     73  61  64 W9        29.77R                  
MUSCATINE *    FAIR      73  59  60 W12       29.74R                  
QUAD CITIES    FAIR      73  60  63 W8        29.73R                  
$$
 
IAZ062-063-075>077-085>089-095>099-250200-
   SOUTHEAST IOWA
  
CITY           SKY/WX    TMP DP  RH WIND       PRES   REMARKS
BURLINGTON     CLEAR     74  59  59 W8        29.77R                  
FAIRFIELD *    CLEAR     73  59  60 SW9       29.77R                  
FORT MADISON * CLEAR     73  61  64 SW6       29.79R                  
KEOKUK *       CLEAR     73  59  60 W8        29.79R                  
OSKALOOSA *    FAIR      73  58  58 W10       29.76S                  
OTTUMWA        CLEAR     73  59  61 SW6       29.76R                  
WASHINGTON *   CLEAR     73  63  68 W8G15     29.74R                  
$$

ABBREVIATIONS USED IN REMARKS
   TC - TEMPERATURES IN CELSIUS
  WCI - WIND CHILL INDEX
   HX - HEAT INDEX
  VSB - VISIBILITY  
$$